RH
62 58 55 51 48 49 53 61 68 83 79 71 74 78 76 77 82 81 73 76 69 27 22 20 18 20 29 30 28 31 37 38 42 45 41 41 37 38 37 38 35 35 32
57 50 54 52 50 52 55 63 64 85 82 80 81 81 80 84 83 76 80 77 54 25 21 18 17 21 22 22 28 25 36 34 41 35 40 41 40 39 38 38 39 42 38
54 52 54 50 55 59 64 69 66 83 85 82 82 83 79 80 84 80 82 76 33 22 18 16 17 18 19 25 21 21 27 31 31 38 42 42 43 41 41 40 38 41 46
52 56 57 55 57 70 76 75 70 82 86 83 82 81 79 83 85 83 86 62 22 19 15 13 16 17 17 16 20 23 29 31 33 36 38 40 41 41 42 43 42 45 49
51 53 56 55 65 78 78 78 77 82 84 85 84 84 80 89 86 83 70 44 20 17 12 13 14 14 16 19 25 29 26 30 35 38 39 40 40 35 37 38 47 46 36
51 51 52 64 77 80 78 80 81 84 86 86 85 86 83 85 82 76 57 32 18 13 12 13 14 16 17 18 23 24 25 32 38 38 39 39 37 32 34 34 38 39 42
49 55 63 80 82 86 80 81 84 85 86 84 85 83 84 85 85 65 54 21 14 13 14 13 17 19 18 19 21 24 26 31 35 33 36 35 33 29 31 29 38 42 42
62 71 81 82 85 85 81 83 85 86 87 89 88 81 80 84 79 65 30 16 14 12 14 15 21 19 20 21 21 24 28 31 34 35 34 32 28 27 30 35 37 39 33
63 72 77 80 82 83 85 86 82 74 73 74 82 85 87 82 74 55 20 14 15 14 15 15 17 20 21 22 22 25 28 29 33 35 34 33 32 31 32 35 38 41 41
46 54 64 77 80 83 83 72 64 57 66 71 78 85 84 82 63 34 18 18 17 16 15 17 20 23 23 23 22 25 27 29 33 35 37 37 36 36 36 37 42 45 45
40 46 49 58 70 78 77 68 52 53 70 75 78 81 73 72 48 26 19 20 20 19 21 22 24 25 24 23 23 26 30 30 33 35 38 39 39 41 42 41 42 47 50
38 48 46 46 52 51 57 48 51 58 68 78 79 62 64 60 48 25 23 23 22 21 23 25 28 26 26 24 24 27 28 29 36 37 40 41 42 43 44 45 42 44 53
37 39 41 40 40 41 40 44 51 53 59 61 53 52 56 54 40 32 27 26 25 21 24 26 28 27 27 26 24 26 29 30 34 37 38 39 41 43 46 48 45 45 48
41 40 39 40 39 48 44 48 52 59 49 50 51 50 49 46 44 37 30 28 26 22 24 26 27 27 28 26 24 25 28 32 36 37 39 42 43 46 49 51 54 54 54
40 44 45 42 44 41 41 45 46 50 45 44 45 48 50 48 46 41 34 28 27 21 23 28 28 27 30 27 27 26 26 29 35 35 37 41 44 47 48 49 51 53 57
40 44 49 42 41 43 41 43 41 45 44 41 43 46 49 52 48 43 37 34 29 26 24 28 30 29 29 29 29 27 27 29 31 33 34 34 36 38 41 43 45 47 48
43 36 44 42 42 38 37 38 39 37 38 39 35 38 44 48 47 45 42 40 37 29 30 31 29 29 29 29 29 28 27 27 27 29 31 31 31 32 33 36 36 38 44
60 48 42 41 41 41 35 34 38 39 35 34 35 36 40 44 48 49 46 41 37 32 34 33 30 29 29 28 29 29 28 28 28 29 29 28 28 28 30 33 36 39 40
51 55 47 47 44 47 47 41 36 32 33 32 35 33 36 38 44 48 48 44 39 36 33 32 31 29 29 29 29 29 29 28 27 29 30 30 29 29 30 33 36 39 42
68 61 54 54 53 49 46 46 48 44 32 28 30 29 31 36 35 37 40 41 42 42 40 37 35 32 31 30 30 30 29 29 29 30 32 31 30 30 30 32 36 40 43
88 70 63 65 64 63 57 50 49 50 48 46 32 24 23 28 35 34 34 36 37 39 42 41 39 37 36 35 34 33 31 30 30 31 30 28 30 31 31 34 38 42 46
98 88 70 70 75 71 72 62 58 56 51 51 54 49 31 24 27 34 34 33 33 34 36 38 40 40 39 37 36 36 37 37 37 35 34 35 38 35 36 44 50 58 63
74 93 94 81 80 76 70 71 71 67 57 58 63 62 57 56 51 41 33 32 33 36 38 37 36 36 36 37 37 37 35 33 37 39 41 41 40 45 57 61 66 68 72
58 78 78 72 68 66 58 59 62 59 63 60 58 63 63 59 62 61 56 53 52 51 47 45 40 35 32 31 32 32 32 34 37 37 38 41 53 61 65 67 71 77 77
44 48 49 48 50 53 51 46 44 46 42 45 47 52 55 52 55 64 59 55 56 56 52 50 53 52 47 45 41 37 39 42 45 48 52 60 66 70 71 68 68 72 74
50 48 47 46 43 41 40 45 43 39 36 38 38 42 49 57 65 67 67 64 59 57 57 53 51 59 64 62 60 60 60 60 57 63 69 70 69 66 67 69 73 70 67